Home   Weather   Oberwart   Past weeks

Flag for Austria Past Weather in Oberwart, Burgenland, Austria — Yesterday and Last 2 Weeks

Now
34 °F

Chilly.


Feels Like: 31 °F
Forecast: 20 / 43 °F
Wind: 3 mph from Northeast

Location: Eisenstadt

Current Time: Dec 5, 2016 at 5:48:56 pm

Latest Report: Dec 5, 2016 at 5:00 pm


Visibility: N/A

Pressure: 30.40 "Hg

Humidity: 77%

Dew Point: 27 °F

Location of OberwartLocation

Past Weather in Oberwart — Graph

°F

Oberwart Temperature Yesterday

Maximum temperature yesterday: 34 °F (at 3:00 pm)
Minimum temperature yesterday: 24 °F (at 8:00 am)
Average temperature yesterday: 29 °F

High & Low Weather Summary for the Past Weeks

 TemperatureHumidityPressure
High63 °F (Nov 22, 2:00 pm)97% (Nov 25, 7:00 am)30.55 "Hg (Nov 25, 7:00 am)
Low24 °F (Dec 4, 8:00 am)32% (Nov 30, 10:00 pm)29.78 "Hg (Dec 2, 8:00 am)
Average41 °F75%30.17 "Hg
* Reported Nov 20 4:00 pm — Dec 5 4:00 pm, Oberwart, Weather by CustomWeather, © 2016

Note: Actual official high and low records may vary slightly from our data, if they occured in-between our weather recording intervals... More about our weather records

Advertising

Oberwart Weather History for the Previous 24 Hours

Scroll right to see more
 ConditionsComfort  
Time TempWeatherWind HumidityBarometerVisibility
4:00 pm
Mon, Dec 5
36 °FSunny.3 mph71%30.40 "Hg5 mi
3:00 pm38 °FChilly.5 mph68%30.39 "HgN/A
2:00 pm38 °FChilly.6 mph67%30.39 "HgN/A
1:00 pm38 °FChilly.5 mph67%30.40 "HgN/A
12:00 pm37 °FChilly.5 mph73%30.41 "HgN/A
11:00 am35 °FChilly.5 mph79%30.44 "HgN/A
10:00 am33 °FFog.5 mph81%30.46 "Hg3 mi
9:00 am29 °FChilly.3 mph87%30.47 "HgN/A
8:00 am27 °FChilly.5 mph90%30.47 "HgN/A
7:00 am26 °FClear.5 mph90%30.46 "Hg12 mi
6:00 am26 °FClear.5 mph90%30.46 "Hg6 mi
5:00 am26 °FClear.5 mph90%30.47 "Hg6 mi
4:00 am27 °FClear.3 mph88%30.47 "Hg6 mi
3:00 am27 °FChilly.3 mph91%30.49 "HgN/A
2:00 am27 °FChilly.3 mph91%30.49 "HgN/A
1:00 am27 °FClear.2 mph90%30.49 "Hg6 mi
12:00 am28 °FChilly.1 mph88%30.50 "HgN/A
11:00 pm
Sun, Dec 4
28 °FChilly.2 mph89%30.51 "HgN/A
10:00 pm28 °FPassing clouds.2 mph87%30.50 "Hg6 mi
9:00 pm28 °FChilly.2 mph88%30.50 "HgN/A
8:00 pm28 °FChilly.2 mph88%30.49 "HgN/A
7:00 pm29 °FPassing clouds.2 mph86%30.49 "Hg6 mi
6:00 pm32 °FChilly.3 mph82%30.47 "HgN/A
5:00 pm32 °FChilly.3 mph82%30.46 "HgN/A
Weather by CustomWeather, © 2016

See weather overviewHow to use our weather pages